Бестобе

Казахстан     52°29′59″N   73°05′57″E
темп.,
°C
ветер,
м/с
пор.,
м/с
влажн.,
%
обл.,
%
осадки,
мм/ч
давл.,
гПа
погр.,
м
2 марта, вт
вт223:00−14зсз349394 0.4 101648
02:00−17з34939 0.0 101829
05:00−18з339528 0.0 101922
08:00−18зюз239683 0.0 101924
11:00−14зюз349081 0.0 1018251
14:00−11юз358894 0.0 1017391
17:00−12зюз339397 0.0 101749
20:00−12зюз469586 0.1 1017128
3 марта, ср
ср323:00−13юз589383 0.1 1017174
02:00−14юз6119181 0.0 1018298
05:00−17юз8138953 0.0 1019310
08:00−17юз815880 0.0 1019360
11:00−15юз1014863 0.0 1019413
14:00−11юз10158541 0.0 1018481
17:00−10юз9168471 0.0 1017526
20:00−8юз101785100 0.0 1017579
4 марта, чт
чт423:00−6ююз101786100 0.0 1016532
02:00−5ююз101886100 0.0 1015717
05:00−4ююз111885100 0.0 1014733
08:00−4ююз111885100 0.0 1013654
11:00−3ююз121883100 0.0 1013658
14:00−2ююз121980100 0.0 1011803
17:00−1ююз111981100 0.0 1010888
20:00−2юз101884100 0.0 1009769
5 марта, пт
пт523:00−2юз10188483 0.0 1009634
02:00−4юз816860 0.0 1009513
05:00−6з7148537 0.0 1013521
08:00−10зюз815850 0.0 1017318
11:00−7юз916790 0.0 1019567
14:00−5юз13197729 0.0 1018884
17:00−4юз13217959 0.0 1018888
20:00−4юз13227799 0.0 1018847
6 марта, сб
сб623:00−5юз132276100 0.0 1018779
02:00−6юз122079100 0.0 1018777
05:00−6юз111981100 0.0 1018776
08:00−6юз111983100 0.0 1017665
11:00−4юз11178485 0.0 1017674
14:00−3зюз9148581 0.0 1018678
17:00−3зюз6118890 0.0 1019541
20:00−6юз4791100 0.0 1019127